Location: Christian Reformed Church
(43.0975°N, 93.8113°W)
Time: 17:30:57
(UTC+00:00)

Cosmos 972 Rocket - Pass Details

Date: 13 December 2025
Orbit: 713 x 1150 km, 75.8° (Epoch: 15 January)

Event Time Altitude Azimuth Distance (km) Brightness Sun altitude
Rises 13:01:47 0° 341° (NNW) 3,801 7.2 -6.7°
Reaches altitude 10° 13:04:30 10° 340° (NNW) 2,783 6.5 -6.3°
Maximum altitude 13:10:55 80° 255° (WSW) 937 4.4 -5.2°
Drops below altitude 10° 13:16:33 10° 169° (S) 2,461 7.2 -4.3°
Sets 13:18:50 0° 168° (SSE) 3,333 8.0 -4.0°
